Tracking 31027 objects as of 19-Jul-2025
HD Live streaming from Space Station
objects crossing your sky now

COSMOS 2251 DEB

Track COSMOS 2251 DEB now!
10-day predictions


NORAD ID: 40794
Int'l Code: 1993-036BVX
Perigee: 615.8 km
Apogee: 645.5 km
Inclination: 74.0 °
Period: 97.2 minutes
Semi major axis: 7001 km
RCS: Unknown
Launch date: June 16, 1993
Source: Commonwealth of Independent States (former USSR) (CIS)
Launch site: PLESETSK MISSILE AND SPACE COMPLEX (PKMTR)

Note: This is SATELLITE DEBRIS
Your satellite tracking list
SL-12 R/B(AUX MOTOR)
Track 1 satellite(s)




NASA's NSSDC Master Catalog

Two Line Element Set (TLE):
1 40794U 93036BVX 25199.88313613  .00011824  00000-0  14917-2 0  9994
2 40794  73.9804  57.5850 0021175 200.7090 176.7084 14.81843467597416
Source of the keplerian elements: AFSPC